Hourly Data Report for October 05, 2017

All times are specified in Local Standard Time (LST). Add 1 hour to adjust for Daylight Saving Time where and when it is observed.

NORTH COWICHAN
BRITISH COLUMBIA

48°49'27.010" N
123°43'08.009" W
44.80 m
1015630
71927
VOO

Download Data

Hourly Data (October 2017)
Hourly Data Report for October 5, 2017
Temp Definition
°C
Dew Point Temp Definition
°C
Rel Hum Definition
%
Wind Dir Definition
10's deg

Wind Spd Definition
km/h
Visibility Definition
km
Stn Press Definition
kPa
Hmdx Definition


Wind Chill Definition


Weather Definition


TIME
00:00 4.2 2.4 89   0   101.62     LegendNANA
01:00 3.8 2.4 90   0   101.66     LegendNANA
02:00 3.0 1.9 92   0   101.65     LegendNANA
03:00 2.2 1.1 92   0   101.68     LegendNANA
04:00 2.1 1.0 93   0   101.70     LegendNANA
05:00 1.7 0.7 93   0   101.69     LegendNANA
06:00 1.4 0.5 94   0   101.70     LegendNANA
07:00 1.6 0.5 93   0   101.73     LegendNANA
08:00 8.0 3.9 75   0   101.73     LegendNANA
09:00 11.9 4.7 62 16 1   101.72     LegendNANA
10:00 15.6 5.7 52 1 4   101.70     LegendNANA
11:00 16.8 5.4 47 36 6   101.68     LegendNANA
12:00 17.8 4.9 43 1 7   101.62     LegendNANA
13:00 19.4 5.1 39 1 6   101.56     LegendNANA
14:00 19.5 6.1 42 35 11   101.50     LegendNANA
15:00 19.8 6.2 41 36 6   101.45     LegendNANA
16:00 19.6 2.8 33 15 6   101.41     LegendNANA
17:00 17.3 6.3 48 35 5   101.42     LegendNANA
18:00 13.2 7.1 67 0 1   101.42     LegendNANA
19:00 10.2 6.0 75   0   101.42     LegendNANA
20:00 8.5 5.2 80   0   101.41     LegendNANA
21:00 7.7 4.8 82 0 1   101.40     LegendNANA
22:00 6.5 4.0 85 0 1   101.41     LegendNANA
23:00 5.8 3.7 87   0   101.42     LegendNANA

Notes on Data Quality.

Legend

  • E = Estimated
  • M = Missing
  • NA = Not Available
  • ‡ = Partner data that is not subject to review by the National Climate Archives
Date modified: